Location: Auckland
(36.8670°S, 174.7670°E)
Time: 12:23:11
(UTC+12:00)

A-11 Canister half - Pass Details

Date: 25 July 2019
Orbit: 1526 x 1683 km, 47.3° (Epoch: 19 August)

Event Time Altitude Azimuth Distance (km) Brightness Sun altitude
Rises 16:21:08 0° 246° (WSW) 4,851 12.1 11.1°
Reaches altitude 10° 16:25:06 10° 259° (W) 3,884 11.9 10.4°
Maximum altitude 16:32:14 23° 306° (NW) 3,017 12.6 9.2°
Drops below altitude 10° 16:39:28 10° 353° (N) 3,927 11.8 8.0°
Sets 16:43:33 0° 6° (N) 4,917 12.0 7.3°
